Retour au catalogue

COSMOS 970 DEB

ActifLEO
NORAD 64982·DEBRIS·🇷🇺 Russia

Lancé Dec 21, 1977 depuis Baikonur Cosmodrome

Loading…

Prochains Passages (prochaines 24 heures)

TLE

VieillissantSource: Space-Track

Époque: Sep 9, 2026, 08:48 UTC

1 64982U 77121CT  26252.36700411  .00000501  00000-0  67557-3 0  9995
2 64982  65.7425 151.5557 0047260 201.1545 271.1019 13.68152823637495

Suivez COSMOS 970 DEB en temps réel avec AllMySat

Download on the App Store